Weather History for KSAD - November, 2013

Change the Weather History Date:

Sunday, November 3, 2013

  Actual Average Record
Temperature  
Mean Temperature 65 °F -  
Max Temperature 75 °F 73 °F 86 °F (1952)
Min Temperature 53 °F 38 °F 17 °F (1956)
Growing Degree Days 15 (Base 50)    
Moisture  
Dew Point 40 °F    
Average Humidity 44    
Maximum Humidity 84    
Minimum Humidity 17    
Precipitation  
Precipitation 0.10 in - - ()
Sea Level Pressure  
Sea Level Pressure 29.77 in    
Wind  
Wind Speed 9 mph (North)    
Max Wind Speed 18 mph    
Max Gust Speed 24 mph    
Visibility 10 miles    
Events Rain    
Averages and records for this station are not official NWS values.
T = Trace of Precipitation, MM = Missing Value Source: NWS Daily Summary

Daily Weather History Graph

Daily Weather History Graph

Search for Another Location

Airport or City:

Trip Planner

Search our weather history database for the weather conditions in past years. The results will help you decide how hot, cold, wet, or windy it might be!

Date:

Astronomy

Nov. 03, 2013 Rise Set
Actual Time 6:38 AM MST 5:25 PM MST
Civil Twilight 6:12 AM MST 5:50 PM MST
Nautical Twilight 5:43 AM MST 6:20 PM MST
Astronomical Twilight 5:14 AM MST 6:49 PM MST
Moon 6:45 AM MST (11/3) 5:44 PM MST (11/3)
Length of Visible Light 11h 38m
Length of Day
10h 47m
New Moon, 0% of the Moon is Illuminated
Nov 3
New Moon
Nov 9
First Quarter
Nov 17
Full
Nov 25
Last Quarter
Dec 2
New

Hourly Weather History & Observations

Time (MST) Temp. Dew Point Humidity Pressure Visibility Wind Dir Wind Speed Gust Speed Precip Events Conditions
12:51 AM 61.0 °F 15.1 °F 17% 29.85 in 10.0 mi NNE 4.6 mph - N/A   Clear
1:51 AM 64.9 °F 24.1 °F 21% 29.83 in 10.0 mi NNW 18.4 mph 24.2 mph N/A   Overcast
2:51 AM 61.0 °F 45.0 °F 56% 29.85 in 10.0 mi North 15.0 mph - 0.00 in Rain Light Rain
3:51 AM 55.9 °F 51.1 °F 84% 29.85 in 10.0 mi NNE 11.5 mph - 0.10 in Rain Light Rain
4:51 AM 57.9 °F 46.9 °F 67% 29.81 in 10.0 mi East 10.4 mph - 0.00 in   Mostly Cloudy
5:51 AM 57.9 °F 45.0 °F 62% 29.83 in 10.0 mi ENE 5.8 mph - N/A   Scattered Clouds
6:51 AM 55.9 °F 46.0 °F 69% 29.83 in 10.0 mi East 8.1 mph - N/A   Mostly Cloudy
7:51 AM 60.1 °F 46.0 °F 60% 29.84 in 10.0 mi East 6.9 mph - N/A   Partly Cloudy
8:51 AM 66.0 °F 44.1 °F 45% 29.84 in 10.0 mi ESE 9.2 mph - N/A   Clear
9:51 AM 68.0 °F 44.1 °F 42% 29.84 in 10.0 mi ESE 5.8 mph - N/A   Clear
10:51 AM 70.0 °F 44.1 °F 39% 29.82 in 10.0 mi SSE 6.9 mph - N/A   Clear
11:51 AM 73.0 °F 43.0 °F 34% 29.78 in 10.0 mi SE 3.5 mph - N/A   Clear
12:51 PM 75.0 °F 42.1 °F 31% 29.73 in 10.0 mi Calm Calm - N/A   Clear
1:51 PM 75.9 °F 41.0 °F 29% 29.70 in 10.0 mi WNW 12.7 mph 18.4 mph N/A   Overcast
2:51 PM 73.9 °F 39.9 °F 29% 29.69 in 10.0 mi SW 6.9 mph - N/A   Partly Cloudy
3:51 PM 75.9 °F 39.0 °F 26% 29.68 in 10.0 mi West 10.4 mph - N/A   Partly Cloudy
4:51 PM 73.9 °F 37.0 °F 26% 29.67 in 10.0 mi NW 11.5 mph - N/A   Clear
5:51 PM 70.0 °F 37.0 °F 30% 29.68 in 10.0 mi NW 11.5 mph - N/A   Clear
6:51 PM 66.0 °F 39.0 °F 37% 29.70 in 10.0 mi NNW 9.2 mph - N/A   Clear
7:51 PM 62.1 °F 39.0 °F 43% 29.72 in 10.0 mi West 8.1 mph - N/A   Clear
8:51 PM 61.0 °F 39.0 °F 44% 29.72 in 10.0 mi WNW 8.1 mph - N/A   Clear
9:51 PM 57.9 °F 39.0 °F 49% 29.73 in 10.0 mi WNW 6.9 mph - N/A   Clear
10:51 PM 57.0 °F 39.0 °F 51% 29.72 in 10.0 mi NNW 4.6 mph - N/A   Clear
11:51 PM 53.1 °F 39.0 °F 59% 29.73 in 10.0 mi NE 3.5 mph - N/A   Clear